SARSAT 7 (NOAA 15) 1 25338U 98030A 12135.70627779 .00000285 00000-0 14042-3 0 2619 2 25338 98.6879 122.9337 0010058 201.4428 158.6316 14.25067003728085 GOES 11 1 26352U 00022A 12134.92002535 -.00000099 00000-0 00000+0 0 7940 2 26352 1.1398 125.6331 0005495 321.0509 39.3312 0.99041210 44034 SARSAT 8 (NOAA 16) 1 26536U 00055A 12135.75028349 .00000157 00000-0 10954-3 0 7467 2 26536 99.0973 177.3517 0010660 173.1538 186.9800 14.12735354600310 GPS BIIR-07 (DASS) 1 26690U 01004A 12135.39445263 -.00000066 00000-0 10000-3 0 4606 2 26690 53.2752 235.5538 0133593 235.8101 122.9343 2.00561353 82733 GOES 12 1 26871U 01031A 12135.36331116 -.00000296 00000-0 10000-3 0 5780 2 26871 2.1861 73.3172 0004081 8.7424 221.5798 1.00272950 39658 SARSAT 9 (NOAA 17) 1 27453U 02032A 12135.65706116 .00000138 00000-0 77163-4 0 7046 2 27453 98.3389 164.3849 0010704 254.1040 105.8951 14.24429760513980 MSG-1 1 27509U 02040B 12137.10677131 .00000056 00000-0 00000+0 0 9214 2 27509 1.2929 59.2127 0002001 119.2449 103.4465 1.00276633 35668 GPS BIIR-08 (DASS) 1 27663U 03005A 12134.76720828 -.00000064 00000-0 10000-3 0 8908 2 27663 56.1792 57.4761 0066329 356.3051 3.6276 2.00565168 68073 INSAT 3A 1 27714U 03013A 12136.56125539 -.00000268 00000-0 10000-3 0 1136 2 27714 0.0822 85.2435 0002352 296.8737 147.1804 1.00271540 33366 GPS BIIR-11 (DASS) 1 28190U 04009A 12135.39494844 .00000064 00000-0 10000-3 0 3459 2 28190 55.0209 120.1070 0082740 7.6522 352.4712 2.00575572 59750 GPS BIIR-12 (DASS) 1 28361U 04023A 12134.68035805 -.00000066 00000-0 10000-3 0 1624 2 28361 55.0248 295.8158 0078053 188.9927 170.8545 2.00567402 57829 GPS BIIR-13 (DASS) 1 28474U 04045A 12135.17146363 .00000038 00000-0 10000-3 0 515 2 28474 53.7829 174.0292 0112514 200.5423 159.0535 2.00561958 55190 SARSAT 10 (NOAA 18) 1 28654U 05018A 12135.68210212 -.00000017 00000-0 15721-4 0 1792 2 28654 99.0436 93.4960 0013349 248.5724 111.4012 14.11646351359831 GPS IIR-14M (DASS) 1 28874U 05038A 12136.02080275 .00000059 00000-0 10000-3 0 3129 2 28874 55.1739 117.0363 0074302 230.0622 129.2695 2.00563630 48633 MSG-2 1 28912U 05049B 12137.16356409 -.00000012 00000-0 10000-3 0 986 2 28912 0.4616 26.1683 0005717 342.1501 284.6381 1.00275095 23515 GOES 13 1 29155U 06018A 12134.36671773 -.00000265 00000-0 10000-3 0 672 2 29155 0.2508 251.1437 0005351 169.2043 228.0742 1.00279511 21892 SARSAT 11 (METOP-A) 1 29499U 06044A 12137.17076812 -.00000045 00000-0 -66514-6 0 7350 2 29499 98.7014 196.8578 0002264 115.9001 244.2429 14.21488141289177 GPS IIR-16M (DASS) 1 29601U 06052A 12136.07385158 -.00000075 00000-0 10000-3 0 7299 2 29601 56.1316 56.3830 0041063 357.8529 2.1267 2.00548508 40240 GPS IIR-17M (DASS) 1 32260U 07047A 12136.39808444 -.00000078 00000-0 00000+0 0 4321 2 32260 54.1812 293.7125 0043295 0.4449 359.5790 2.00578273 33647 GPS IIR-18M (DASS) 1 32384U 07062A 12135.20848967 .00000061 00000-0 10000-3 0 4728 2 32384 55.2022 117.5609 0025474 292.2087 67.6137 2.00572916 32343 SARSAT 12 (NOAA 19) 1 33591U 09005A 12135.75341258 .00000378 00000-0 23318-3 0 3714 2 33591 98.8622 75.9594 0014940 113.8968 246.3772 14.11335097168292 GOES 14 1 35491U 09033A 12135.41465726 -.00000098 00000-0 00000+0 0 4604 2 35491 0.1386 91.3292 0006667 354.3587 190.5261 1.00272189 10575 COSPAS C11 (STERKH 1) 1 35636U 09039B 12136.62176004 .00000079 00000-0 51705-4 0 3939 2 35636 82.9540 326.7241 0018885 209.0717 150.9397 13.89531064142959 COSPAS C12 (STERKH 2) 1 35866U 09049B 12137.19548550 .00000091 00000-0 60327-4 0 2491 2 35866 98.6607 192.9337 0003583 128.1951 231.9547 14.22460167138103 GOES 15 1 36411U 10008A 12135.71268287 .00000078 00000-0 10000-3 0 706 2 36411 0.1948 76.0254 0001032 9.5249 268.4443 1.00269024 8078 ELEKTRO-L 1 1 37344U 11001A 12136.60718659 -.00000107 00000-0 10000-3 0 3446 2 37344 0.0608 197.9382 0003911 260.4267 69.9730 1.00275074 4887 GLONASS-K 1 1 37372U 11009A 12136.20161015 .00000090 00000-0 10000-3 0 3607 2 37372 64.8069 127.5021 0007125 251.2958 164.1403 2.13109625 9447